Location: Carabito
(9.8355°N, 67.9249°W)
Time: 10:48:36
(UTC+00:00)

Lacrosse 5 rocket - Pass Details

Date: 23 May 2024
Orbit: 445 x 572 km, 57.0° (Epoch: 20 June)

Event Time Altitude Azimuth Distance (km) Brightness Sun altitude
Rises 09:30:18 0° 304° (NW) 2,554 4.4 -9.9°
Reaches altitude 10° 09:33:05 10° 283° (WNW) 1,646 3.3 -9.2°
Maximum altitude 09:35:29 17° 242° (WSW) 1,276 2.5 -8.7°
Drops below altitude 10° 09:37:50 10° 201° (SSW) 1,606 3.3 -8.2°
Sets 09:40:30 0° 179° (S) 2,460 4.4 -7.5°
